Anchialos, Greece

7:26 AM EEST on August 21, 2017 (GMT +0300)
Almiros Air Base

Weather History for LGBL - August, 2017

Change the Weather History Date:

Saturday, August 12, 2017

  Actual Average Record
Temperature  
Mean Temperature 83 °F -  
Max Temperature 95 °F - - ()
Min Temperature 71 °F - - ()
Cooling Degree Days 18    
Growing Degree Days 33 (Base 50)    
Moisture  
Dew Point 62 °F    
Average Humidity 49    
Maximum Humidity 69    
Minimum Humidity 28    
Precipitation  
Precipitation 0.00 in - - ()
Sea Level Pressure  
Sea Level Pressure 29.77 in    
Wind  
Wind Speed 5 mph ()    
Max Wind Speed 16 mph    
Max Gust Speed -    
T = Trace of Precipitation, MM = Missing Value Source: Averaged Metar Reports

Daily Weather History Graph

Daily Weather History Graph

Search for Another Location

Airport or City:

Trip Planner

Search our weather history database for the weather conditions in past years. The results will help you decide how hot, cold, wet, or windy it might be!

Date:

Astronomy

Aug. 12, 2017 Rise Set
Actual Time 6:39 AM EEST 8:27 PM EEST
Civil Twilight 6:10 AM EEST 8:56 PM EEST
Nautical Twilight 5:35 AM EEST 9:31 PM EEST
Astronomical Twilight 4:57 AM EEST 10:09 PM EEST
Moon 11:16 PM EEST (8/12) 11:12 AM EEST (8/12)
Length of Visible Light 14h 46m
Length of Day
13h 48m
Waning Gibbous, 78% of the Moon is Illuminated
Aug 12
Waning Gibbous
Aug 15
Last Quarter
Aug 21
New
Aug 29
First Quarter
Sep 6
Full

Hourly Weather History & Observations

Time (EEST) Temp. Heat Index Dew Point Humidity Pressure Visibility Wind Dir Wind Speed Gust Speed Precip Events Conditions
1:20 AM 77.0 °F - 62.6 °F 61% 29.86 in - West 3.5 mph - N/A   Clear
2:50 AM 73.4 °F - 60.8 °F 65% 29.86 in - Variable 2.3 mph - N/A   Clear
3:50 AM 73.4 °F - 60.8 °F 65% 29.83 in - Variable 2.3 mph - N/A   Clear
5:50 AM 71.6 °F - 60.8 °F 69% 29.83 in - Calm Calm - N/A   Clear
6:20 AM 71.6 °F - 60.8 °F 69% 29.83 in - Calm Calm - N/A   Clear
6:50 AM 71.6 °F - 60.8 °F 69% 29.83 in - Calm Calm - N/A   Clear
7:20 AM 71.6 °F - 60.8 °F 69% 29.83 in - Calm Calm - N/A   Clear
7:50 AM 73.4 °F - 60.8 °F 65% 29.83 in - Calm Calm - N/A   Clear
8:20 AM 77.0 °F - 60.8 °F 57% 29.83 in - Calm Calm - N/A   Clear
8:50 AM 80.6 °F 81.5 °F 60.8 °F 51% 29.83 in - Calm Calm - N/A   Clear
9:20 AM 80.6 °F 81.5 °F 60.8 °F 51% 29.83 in - Calm Calm - N/A   Clear
9:50 AM 86.0 °F 84.5 °F 55.4 °F 35% 29.83 in - Calm Calm - N/A   Clear
10:20 AM 89.6 °F 88.9 °F 59.0 °F 36% 29.83 in - NE 3.5 mph - N/A   Clear
10:50 AM 87.8 °F 88.5 °F 62.6 °F 43% 29.83 in - ENE 3.5 mph - N/A   Clear
11:20 AM 87.8 °F 87.6 °F 60.8 °F 40% 29.83 in - NE 4.6 mph - N/A   Clear
11:50 AM 87.8 °F 88.5 °F 62.6 °F 43% 29.83 in - NE 5.8 mph - N/A   Clear
12:20 PM 87.8 °F 89.4 °F 64.4 °F 46% 29.80 in - ENE 8.1 mph - N/A   Clear
12:50 PM 89.6 °F 91.1 °F 64.4 °F 43% 29.80 in - ENE 9.2 mph - N/A   Clear
1:20 PM 89.6 °F 94.7 °F 69.8 °F 52% 29.80 in - ENE 8.1 mph - N/A   Clear
1:50 PM 89.6 °F 96.2 °F 71.6 °F 55% 29.77 in - East 9.2 mph - N/A   Clear
2:20 PM 91.4 °F 96.8 °F 69.8 °F 49% 29.77 in - ENE 9.2 mph - N/A   Clear
3:20 PM 95.0 °F 93.7 °F 57.2 °F 28% 29.74 in - East 16.1 mph - N/A   Clear
3:50 PM 93.2 °F 93.3 °F 60.8 °F 34% 29.74 in - ENE 16.1 mph - N/A   Clear
4:20 PM 93.2 °F 92.6 °F 59.0 °F 32% 29.71 in - East 16.1 mph - N/A   Clear
4:50 PM 91.4 °F 91.4 °F 60.8 °F 36% 29.71 in - East 16.1 mph - N/A   Clear
5:20 PM 91.4 °F 91.4 °F 60.8 °F 36% 29.71 in - East 15.0 mph - N/A   Clear
5:50 PM 91.4 °F 91.4 °F 60.8 °F 36% 29.68 in - East 13.8 mph - N/A   Clear
6:20 PM 91.4 °F 90.7 °F 59.0 °F 34% 29.68 in - East 16.1 mph - N/A   Clear
6:50 PM 89.6 °F 88.9 °F 59.0 °F 36% 29.68 in - East 16.1 mph - N/A   Clear
7:20 PM 87.8 °F 89.4 °F 64.4 °F 46% 29.68 in - East 13.8 mph - N/A   Clear
7:50 PM 86.0 °F 86.6 °F 62.6 °F 45% 29.68 in - East 15.0 mph - N/A   Clear
8:20 PM 84.2 °F 85.6 °F 64.4 °F 51% 29.68 in - East 11.5 mph - N/A   Clear
8:50 PM 84.2 °F 85.0 °F 62.6 °F 48% 29.68 in - ENE 9.2 mph - N/A   Clear
9:50 PM 82.4 °F 83.4 °F 62.6 °F 51% 29.68 in - East 6.9 mph - N/A   Clear
10:50 PM 78.8 °F - 62.6 °F 57% 29.68 in - Variable 2.3 mph - N/A   Clear
11:50 PM 75.2 °F - 57.2 °F 53% 29.68 in - West 4.6 mph - N/A   Clear